Weather in Kerki

Russia / Komi Republic     63°43′50″N   54°12′14″E
temp.,
°C
wind,
m/s
gust,
m/s
humid.,
%
clouds,
%
prec.,
mm/h
press.,
hPa
HPBL,
m
12 may, wed
wed1200:00+9s31089100 0.2 1024277
03:00+10sw3138680 0.2 1024405
06:00+13wsw41277100 0.0 1024504
09:00+18wsw51156100 0.0 10221001
12:00+21w6104445 0.0 10221640
15:00+23wnw594162 0.0 10222072
18:00+21w384753 0.0 10221416
21:00+18wnw2761100 0.0 1023226
13 may, thu
thu1300:00+15n378398 0.0 1025430
03:00+12nne258816 0.0 1026167
06:00+13ene116626 0.0 1027372
09:00+18s12525 0.0 1026693
12:00+23sw354442 0.0 10241702
15:00+25wsw47340 0.0 10222474
18:00+24sw37360 0.0 1020536
21:00+18sw310490 0.0 1020205
14 may, fri
fri1400:00+16sw311566 0.0 1019227
03:00+15sw3126741 0.0 1019252
06:00+18wsw3105764 0.0 1018387
09:00+23wsw474358 0.0 10171014
12:00+24wsw5836100 0.0 10152902
15:00+23sw5840100 0.0 10141888
18:00+20wsw385299 0.1 1013625
21:00+18sw412674 0.6 1012589
15 may, sat
sat1500:00+16wsw41279100 0.1 1013433
03:00+14sw31182100 0.1 1013367
06:00+16wsw496966 0.0 1013540
09:00+20wsw58395 0.0 10121750
12:00+22w583175 0.0 10122633
15:00+15nw7116276 0.1 1014726
18:00+16nw47555 0.1 10141223
21:00+13ne11735 0.1 101513
16 may, sun
sun1600:00+10ene2591100 0.0 1016197
03:00+9ene3784100 0.0 1016302
06:00+9e3789100 2.1 1015310
09:00+10e41290100 8.7 1012410
12:00+12ese3782100 0.4 1010484
15:00+13ne568067 0.8 1007416
18:00+11e2595100 7.3 1007167
21:00+10se1496100 13.3 1007196